Flag for India Weather past 2 weeks in Kolkata, West Bengal, India

Now
64 °F

Haze.


Feels Like: 64 °F
Forecast: 58 / 77 °F
Wind: 5 mph from North

Location: Calcutta / Dum Dum

Current Time: Dec 19, 2014 at 11:25:01 PM

Latest Report: Dec 19, 2014 at 10:50 PM


Visibility: 1 mi

Pressure: 30.04 "Hg

Humidity: 73%

Dew point: 55 °F

Location of KolkataLocation

Historic Weather in Kolkata — Graph

°F

Kolkata temperature yesterday

Maximum temperature yesterday: 75 °F (at 1:20 PM)
Minimum temperature yesterday: 54 °F (at 4:50 AM)
Average temperature yesterday: 64 °F

Past Weeks' High & Low Weather Summary

 TemperatureHumidityPressure
High82 °F (Dec 5, 1:20 PM)100% (Dec 7, 6:20 AM)30.15 "Hg (Dec 7, 6:20 AM)
Low54 °F (Dec 8, 6:20 AM)28% (Dec 10, 12:20 PM)29.86 "Hg (Dec 5, 3:50 PM)
Average68 °F76%29.97 "Hg
* Reported Dec 4 9:50 PM — Dec 19 10:20 PM, Kolkata, Weather by CustomWeather, © 2014

Note: Actual official high and low records may vary slightly from our data, if they occured in-between our weather recording intervals... More about our weather records

Advertising

Kolkata weather history for previous 24 hours

 ConditionsComfort  
Time TempWeatherWind HumidityBarometerVisibility
10:20 PM
Dec 19
64 °FHaze.5 mph73%30.04 "Hg1 mi
9:50 PM64 °FHaze.5 mph73%30.04 "Hg1 mi
9:20 PM64 °FHaze.5 mph73%30.04 "Hg1 mi
8:50 PM66 °FHaze.5 mph68%30.04 "Hg1 mi
8:20 PM66 °FHaze.5 mph68%30.04 "Hg1 mi
7:50 PM66 °FHaze.5 mph68%30.04 "Hg1 mi
7:20 PM68 °FHaze.6 mph69%30.04 "Hg1 mi
6:50 PM68 °FHaze.6 mph69%30.01 "Hg2 mi
6:20 PM70 °FHaze.5 mph64%30.01 "Hg2 mi
5:50 PM72 °FHaze.6 mph61%30.01 "Hg2 mi
5:20 PM72 °FHaze.5 mph61%30.01 "Hg2 mi
4:20 PM75 °FHaze.7 mph50%29.98 "Hg2 mi
3:50 PM77 °FHaze.8 mph47%30.01 "Hg2 mi
3:20 PM77 °FHaze.9 mph47%30.01 "Hg2 mi
2:50 PM77 °FHaze.9 mph47%30.01 "Hg2 mi
2:20 PM77 °FHaze.9 mph47%30.01 "Hg2 mi
1:50 PM77 °FHaze.8 mph47%30.04 "Hg2 mi
1:20 PM77 °FHaze.9 mph47%30.04 "Hg2 mi
12:50 PM77 °FHaze.9 mph47%30.04 "Hg2 mi
12:20 PM77 °FHaze.12 mph47%30.07 "Hg2 mi
11:20 AM73 °FHaze.12 mph53%30.09 "Hg2 mi
10:50 AM72 °FHaze.14 mph57%30.12 "Hg1 mi
10:20 AM70 °FHaze.12 mph60%30.12 "Hg1 mi
9:50 AM68 °FHaze.14 mph64%30.15 "Hg1 mi
8:50 AM64 °FHaze.12 mph68%30.15 "Hg1 mi
8:20 AM63 °FFog.10 mph83%30.12 "Hg1 mi
7:20 AM59 °FCool.8 mph94%30.12 "Hg1 mi
6:20 AM57 °FFog.8 mph94%30.09 "Hg1 mi
5:50 AM57 °FFog.8 mph88%30.07 "Hg1 mi
5:20 AM57 °FFog.7 mph88%30.07 "Hg1 mi
4:50 AM57 °FFog.7 mph88%30.07 "Hg1 mi
4:20 AM57 °FFog.7 mph88%30.07 "Hg1 mi
3:50 AM57 °FFog.7 mph88%30.07 "Hg1 mi
3:20 AM57 °FFog.7 mph88%30.04 "Hg1 mi
2:50 AM57 °FFog.3 mph88%30.07 "Hg1 mi
2:20 AM57 °FFog.3 mph88%30.07 "Hg1 mi
1:50 AM57 °FFog.3 mph88%30.07 "Hg1 mi
1:20 AM57 °FFog.5 mph88%30.07 "Hg1 mi
12:50 AM57 °FFog.3 mph88%30.07 "Hg1 mi
12:20 AM59 °FFog.3 mph88%30.09 "Hg1 mi
11:50 PM
Dec 18
59 °FFog.No wind88%30.07 "Hg1 mi
11:20 PM61 °FFog.No wind88%30.07 "Hg1 mi
Weather by CustomWeather, © 2014

See weather overviewHow to use our weather pages